Tracking 23114 objects as of 16-May-2021
HD Live streaming from Space Station
objects crossing your sky now

STARLINK-2465

Track STARLINK-2465 now!
10-day predictions
STARLINK-2465 is classified as:


NORAD ID: 48124
Int'l Code: 2021-027AJ
Perigee: 355.1 km
Apogee: 358.7 km
Inclination: 53.0 °
Period: 91.5 minutes
Semi major axis: 6727 km
RCS: Unknown
Launch date: April 7, 2021
Source: United States (US)
Launch site: AIR FORCE EASTERN TEST RANGE (AFETR)
aabbcc
Your satellite tracking list
Your tracking list is empty




NASA's NSSDC Master Catalog

Two Line Element Set (TLE):
1 48124U 21027AJ  21136.58334491  .00014314  00000-0  10618-3 0  9993
2 48124  53.0468 147.0320 0002696  14.0352 171.0617 15.73208211  1826
Source of the keplerian elements: AFSPC